Weather reports worldwide

Advertisment
Shoreham Airport, United Kingdom (3876): temperature & dewpoint: 11.08.2018 13:00:00 - 17.08.2018 13:00:00 (BST)Shoreham Airport, United Kingdom (3876): wind speed & gusts: 11.08.2018 13:00:00 - 17.08.2018 13:00:00 (BST)Shoreham Airport, United Kingdom (3876): wind direction: 11.08.2018 13:00:00 - 17.08.2018 13:00:00 (BST)Shoreham Airport, United Kingdom (3876): reduced air pressure: 11.08.2018 13:00:00 - 17.08.2018 13:00:00 (BST)Shoreham Airport, United Kingdom (3876): visibility: 11.08.2018 13:00:00 - 17.08.2018 13:00:00 (BST)Shoreham Airport, United Kingdom (3876): precipitation: 11.08.2018 13:00:00 - 17.08.2018 13:00:00 (BST)
Date & Time tt [°C] td [°C] ff [km/h] ff [kn] fx [km/h] fx [kn] dd ppp [hPa] vv [km] rr [mm]
17.08.2018 13:00:00 18,2 13,0 28 15 - - SW 1021,2 10 0,0
17.08.2018 12:00:00 19,0 14,1 24 13 - - SSW 1021,0 10 0,0
17.08.2018 11:00:00 18,4 13,9 18 10 - - SSW 1021,1 - 0,0
17.08.2018 10:00:00 18,6 13,4 5 3 - - - 1020,8 10 0,0
17.08.2018 09:00:00 17,5 13,3 5 3 - - - 1020,3 10 0,0
17.08.2018 08:00:00 13,9 12,7 0 0 - - N 1020,0 10 0,0
17.08.2018 07:00:00 10,3 9,7 5 3 - - NNW 1019,5 - 0,0
17.08.2018 06:00:00 9,9 8,9 5 3 - - W 1018,7 - 0,0
17.08.2018 05:00:00 10,8 9,6 11 6 - - NNW 1018,2 - 0,0
17.08.2018 04:00:00 11,6 10,3 11 6 - - NNW 1017,9 - 0,0
17.08.2018 03:00:00 10,2 9,5 9 5 - - NNW 1017,8 - 0,0
17.08.2018 02:00:00 10,8 9,3 4 2 - - NNW 1017,5 - 0,0
17.08.2018 01:00:00 12,5 10,1 11 6 - - NNW 1017,4 - 0,0
17.08.2018 00:00:00 12,3 11,0 8 4 - - WNW 1017,2 - 0,0
16.08.2018 23:00:00 11,3 10,4 8 4 - - W 1016,9 - 0,0
16.08.2018 22:00:00 13,2 12,0 9 5 - - W 1016,2 - 0,0
16.08.2018 21:00:00 15,5 13,5 13 7 - - W 1015,8 - 0,0
16.08.2018 20:00:00 17,0 14,2 18 10 - - WSW 1015,4 - 0,0
16.08.2018 19:00:00 17,5 14,2 15 8 - - WSW 1015,2 - 0,0
16.08.2018 18:00:00 16,9 13,9 13 7 - - WSW 1015,1 10 0,0
16.08.2018 17:00:00 16,9 14,1 9 5 - - WSW 1014,8 10 0,0
16.08.2018 16:00:00 16,3 14,2 9 5 - - W 1015,1 10 0,0
16.08.2018 15:00:00 15,9 14,5 9 5 - - W 1014,8 10 2,2
16.08.2018 14:00:00 17,0 16,2 15 8 - - SW 1014,6 6 2,4
16.08.2018 13:00:00 16,9 16,2 16 9 - - WSW 1014,3 5 1,0
16.08.2018 12:00:00 17,5 16,8 34 18 50 27 SW 1014,0 4,0 0,6
16.08.2018 11:00:00 17,7 16,7 31 17 50 27 SW 1013,8 2,0 0,0
16.08.2018 10:00:00 18,6 15,9 34 18 48 26 SSW 1013,8 10 0,0
16.08.2018 09:00:00 18,7 16,4 31 17 50 27 SSW 1014,1 10 0,0
16.08.2018 08:00:00 18,7 15,9 28 15 46 25 SW 1014,1 10 0,0
16.08.2018 07:00:00 18,0 16,0 31 17 48 26 SW 1014,5 - 0,0
16.08.2018 06:00:00 18,7 15,4 35 19 48 26 SW 1014,4 - 0,0
16.08.2018 05:00:00 18,3 15,2 28 15 48 26 SW 1014,8 - 0,0
16.08.2018 04:00:00 18,5 15,9 28 15 - - SW 1015,2 - 0,0
16.08.2018 03:00:00 18,0 15,8 24 13 - - SW 1015,5 - 0,0
16.08.2018 02:00:00 18,4 16,4 26 14 - - SW 1015,9 - 0,0
16.08.2018 01:00:00 18,4 16,6 21 11 - - SW 1016,5 - 0,0
16.08.2018 00:00:00 17,9 16,1 22 12 - - SW 1016,9 - 0,0
15.08.2018 23:00:00 17,4 15,4 22 12 - - SW 1017,2 - 0,0
15.08.2018 22:00:00 18,3 15,9 22 12 - - SW 1017,6 - 0,0
15.08.2018 21:00:00 18,0 14,8 22 12 - - SW 1017,7 - 0,0
15.08.2018 20:00:00 18,2 15,4 24 13 - - SW 1017,5 10 0,0
15.08.2018 19:00:00 18,8 15,4 28 15 - - SW 1017,6 10 0,0
15.08.2018 18:00:00 19,7 16,4 34 18 - - SW 1018,0 10 0,0
15.08.2018 17:00:00 20,3 17,0 34 18 48 26 SW 1018,4 10 0,0
15.08.2018 16:00:00 20,5 16,2 42 23 48 26 SW 1018,6 10 0,0
15.08.2018 15:00:00 20,4 16,8 31 17 46 25 SW 1018,9 10 0,0
15.08.2018 14:00:00 20,5 16,6 29 16 - - SW 1019,2 10 0,0
15.08.2018 13:00:00 20,2 16,3 26 14 - - SW 1019,3 10 0,0
15.08.2018 12:00:00 20,2 16,5 28 15 - - SW 1019,2 10 0,0
15.08.2018 11:00:00 19,6 15,3 21 11 - - SW 1019,4 10 0,0
15.08.2018 10:00:00 19,3 14,8 16 9 - - SW 1019,5 10 0,0
15.08.2018 09:00:00 18,5 14,6 11 6 - - W 1019,5 10 0,0
15.08.2018 08:00:00 17,3 14,2 13 7 - - W 1019,3 10 0,0
15.08.2018 07:00:00 17,4 14,3 13 7 - - W 1019,0 - 0,0
15.08.2018 06:00:00 17,0 14,4 8 4 - - W 1018,6 - 0,0
15.08.2018 05:00:00 17,0 14,2 5 3 - - W 1018,5 - 0,0
15.08.2018 04:00:00 17,2 14,1 11 6 - - W 1018,7 - 0,0
15.08.2018 03:00:00 17,0 14,2 4 2 - - W 1018,6 - 0,0
15.08.2018 02:00:00 17,0 14,1 11 6 - - WNW 1018,8 - 0,0
15.08.2018 01:00:00 15,8 13,3 13 7 - - WNW 1019,0 - 0,0
15.08.2018 00:00:00 17,1 14,5 16 9 - - NW 1018,9 - 0,0
14.08.2018 23:00:00 17,0 15,2 9 5 - - W 1018,6 - 0,0
14.08.2018 22:00:00 18,5 16,2 16 9 - - WSW 1018,4 - 0,0
14.08.2018 21:00:00 19,0 17,4 16 9 - - WSW 1018,1 - 0,0
14.08.2018 20:00:00 19,6 17,4 22 12 - - SW 1017,8 10 0,0
14.08.2018 19:00:00 20,2 17,2 26 14 - - WSW 1017,5 10 0,0
14.08.2018 18:00:00 20,6 17,2 28 15 - - WSW 1017,7 10 0,0
14.08.2018 17:00:00 19,7 16,9 34 18 50 27 WSW 1017,9 10 0,0
14.08.2018 16:00:00 21,4 16,8 39 21 50 27 SW 1017,8 10 0,0
14.08.2018 15:00:00 21,0 16,5 31 17 - - SW 1017,8 10 0,0
14.08.2018 14:00:00 21,5 15,4 22 12 - - W 1017,7 10 0,0
14.08.2018 13:00:00 21,4 15,5 185 100 - - WSW 1017,5 10 0,0
14.08.2018 12:00:00 18,8 15,3 26 14 - - SW 1017,4 10 0,0
14.08.2018 11:00:00 19,8 17,0 21 11 - - SSW 1017,1 10 0,0
14.08.2018 10:00:00 18,3 14,5 16 9 - - SSW 1016,9 10 0,0
14.08.2018 09:00:00 16,8 14,0 2 1 - - NNE 1016,8 - 0,0
14.08.2018 08:00:00 15,8 13,5 4 2 - - N 1016,3 10 0,0
14.08.2018 07:00:00 13,8 12,8 4 2 - - WSW 1015,9 - 0,0
14.08.2018 06:00:00 12,7 11,4 5 3 - - NNW 1015,2 - 0,0
14.08.2018 05:00:00 13,8 11,7 5 3 - - WNW 1014,4 - 0,0
14.08.2018 04:00:00 14,6 12,1 5 3 - - NW 1014,0 - 0,0
14.08.2018 03:00:00 15,8 13,9 11 6 - - NW 1013,7 - 0,0
14.08.2018 02:00:00 15,6 14,5 4 2 - - SW 1013,3 - 0,0
14.08.2018 01:00:00 16,4 14,2 4 2 - - NW 1012,6 - 0,0
14.08.2018 00:00:00 18,3 15,1 15 8 - - NNW 1011,9 - 0,0
13.08.2018 23:00:00 18,5 15,2 13 7 - - WNW 1011,2 - 0,0
13.08.2018 22:00:00 18,2 16,3 11 6 - - W 1010,6 - 0,0
13.08.2018 21:00:00 18,6 17,1 16 9 - - WSW 1010,1 - 0,0
13.08.2018 20:00:00 19,4 17,0 18 10 - - WSW 1009,6 10 0,0
13.08.2018 19:00:00 20,3 16,9 24 13 - - WSW 1009,0 10 0,0
13.08.2018 18:00:00 20,6 16,5 31 17 - - WSW 1008,7 10 0,0
13.08.2018 17:00:00 20,8 16,4 29 16 - - WSW 1008,4 10 0,0
13.08.2018 16:00:00 21,6 17,2 29 16 - - SW 1008,1 10 0,0
13.08.2018 15:00:00 21,1 16,5 28 15 - - WSW 1008,1 10 0,0
13.08.2018 14:00:00 19,6 16,7 13 7 - - WSW 1008,0 10 0,6
13.08.2018 13:00:00 21,1 16,3 15 8 - - WSW 1007,6 10 0,0
13.08.2018 12:00:00 20,0 16,0 13 7 - - W 1007,5 - 0,0
13.08.2018 11:00:00 18,6 15,9 16 9 - - W 1007,2 10 0,0
13.08.2018 10:00:00 18,3 16,2 13 7 - - WSW 1006,9 10 0,0
13.08.2018 09:00:00 17,8 16,2 8 4 - - WNW 1006,5 10 0,0
13.08.2018 08:00:00 16,5 15,8 11 6 - - NW 1006,4 10 0,2
13.08.2018 07:00:00 15,9 15,5 9 5 - - W 1006,1 - 0,0
13.08.2018 06:00:00 15,6 15,2 5 3 - - W 1005,6 - 0,0
13.08.2018 05:00:00 16,1 15,5 11 6 - - W 1005,4 - 0,0
13.08.2018 04:00:00 16,4 15,9 5 3 - - W 1005,6 - 0,2
13.08.2018 03:00:00 15,9 15,5 4 2 - - WNW 1005,7 - 0,0
13.08.2018 02:00:00 15,8 15,2 2 1 - - WNW 1006,1 - 0,2
13.08.2018 01:00:00 16,5 15,7 2 1 - - WSW 1006,5 - 0,0
13.08.2018 00:00:00 17,1 16,0 5 3 - - W 1006,9 - 0,0
12.08.2018 23:00:00 17,8 16,9 11 6 - - SSE 1007,2 - 0,0
12.08.2018 22:00:00 17,0 16,4 9 5 - - ESE 1007,5 - 0,2
12.08.2018 21:00:00 16,8 16,3 8 4 - - SSE 1007,7 - 4,2
12.08.2018 20:00:00 16,3 15,3 21 11 - - SW 1008,0 - 2,6
12.08.2018 19:00:00 17,6 14,6 22 12 - - SSW 1008,2 7 0,0
12.08.2018 18:00:00 19,4 14,9 16 9 - - S 1008,9 10 0,0
12.08.2018 17:00:00 18,8 14,4 11 6 - - S 1009,3 10 0,0
12.08.2018 16:00:00 18,2 14,7 13 7 - - SSW 1010,0 10 0,0
12.08.2018 15:00:00 18,1 15,3 15 8 - - SSW 1010,6 10 0,2
12.08.2018 14:00:00 18,4 14,9 24 13 - - SSW 1011,1 10 0,0
12.08.2018 13:00:00 19,0 15,1 26 14 - - SW 1011,5 10 0,0
12.08.2018 12:00:00 19,8 15,2 26 14 - - SSW 1011,8 10 0,0
12.08.2018 11:00:00 20,3 15,5 21 11 - - S 1012,0 10 0,0
12.08.2018 10:00:00 20,3 16,2 18 10 - - S 1012,1 10 0,0
12.08.2018 09:00:00 19,4 16,8 21 11 - - S 1012,5 10 0,0
12.08.2018 08:00:00 19,4 16,1 22 12 - - S 1012,9 - 0,0
12.08.2018 07:00:00 18,7 15,6 18 10 - - S 1013,3 - 0,0
12.08.2018 06:00:00 18,8 15,7 22 12 - - S 1013,4 - 0,0
12.08.2018 05:00:00 18,9 16,3 22 12 - - SSW 1013,8 - 0,0
12.08.2018 04:00:00 18,9 16,6 15 8 - - S 1014,6 - 0,0
12.08.2018 03:00:00 18,5 16,1 18 10 - - SSE 1015,3 - 0,0
12.08.2018 02:00:00 18,4 16,2 18 10 - - SSE 1016,1 - 0,0
12.08.2018 01:00:00 18,5 15,8 18 10 - - SE 1016,8 - 0,0
12.08.2018 00:00:00 18,2 15,9 18 10 - - SE 1017,8 - 0,0
11.08.2018 23:00:00 18,2 15,6 18 10 - - SSE 1018,7 - 0,0
11.08.2018 22:00:00 18,1 15,8 15 8 - - SE 1019,2 - 0,0
11.08.2018 21:00:00 18,1 15,2 11 6 - - S 1019,6 - 0,0
11.08.2018 20:00:00 18,0 15,1 15 8 - - S 1020,1 - 0,0
11.08.2018 19:00:00 18,2 15,4 16 9 - - SSW 1020,7 10 0,0
11.08.2018 18:00:00 18,6 15,6 16 9 - - SSW 1021,1 10 0,0
11.08.2018 17:00:00 18,8 15,7 18 10 - - S 1021,5 10 0,0
11.08.2018 16:00:00 18,6 14,0 21 11 - - S 1022,1 10 0,0
11.08.2018 15:00:00 17,9 13,7 16 9 - - SSW 1022,8 10 0,0
11.08.2018 14:00:00 18,5 12,6 16 9 - - S 1023,1 10 0,0
11.08.2018 13:00:00 18,2 11,0 15 8 - - S 1023,4 10 0,0

tt = temperature
td = dewpoint
ff = wind speed
fx = gusts
dd = wind direction
ppp = reduced air pressure
vv = visibility
rr = precipitation

Next stations